• In Lithuania
  • List of Countries
  • For 7 days
  • Water Temperature
  • Satellite Maps
  • Weather Map
  • Weather Widgets
  • user-avatar
    Login

    Hourly Weather Mayrhofen

    Today, 25 September, Monday

    Time Temperature Precipitation Wind Pressure Humidity
    00:00 +2°C° 0 mm 1 mps 618 mmHg 91%
    01:00 +2°C° 0 mm 1 mps 618 mmHg 91%
    02:00 +2°C° 0 mm 1 mps 618 mmHg 90%
    03:00 +2°C° 0 mm 1 mps 618 mmHg 88%
    04:00 +1°C° 0 mm 1 mps 617 mmHg 87%
    05:00 +2°C° 0 mm 1 mps 618 mmHg 85%
    06:00 +2°C° 0 mm 1 mps 618 mmHg 83%
    07:00 +2°C° 0 mm 1 mps 618 mmHg 81%
    08:00 +5°C° 0 mm 1 mps 619 mmHg 73%
    09:00 +7°C° 0 mm 0 mps 620 mmHg 65%
    10:00 +9°C° 0 mm 0 mps 620 mmHg 57%
    11:00 +10°C° 0 mm 0 mps 620 mmHg 55%
    12:00 +12°C° 0 mm 1 mps 620 mmHg 54%
    13:00 +12°C° 0 mm 1 mps 620 mmHg 52%
    14:00 +12°C° 0 mm 1 mps 620 mmHg 54%
    15:00 +11°C° 0 mm 1 mps 620 mmHg 57%
    16:00 +11°C° 0 mm 1 mps 620 mmHg 59%
    17:00 +8°C° 0 mm 1 mps 619 mmHg 68%
    18:00 +6°C° 0 mm 1 mps 618 mmHg 77%
    19:00 +4°C° 0 mm 1 mps 618 mmHg 85%
    20:00 +4°C° 0 mm 1 mps 618 mmHg 86%
    21:00 +3°C° 0 mm 1 mps 618 mmHg 87%
    22:00 +3°C° 0 mm 1 mps 618 mmHg 87%
    23:00 +3°C° 0 mm 1 mps 618 mmHg 87%

    Tomorrow, 26 September, Tuesday

    Time Temperature Precipitation Wind Pressure Humidity
    00:00 +3°C° 0 mm 1 mps 618 mmHg 88%
    01:00 +3°C° 0 mm 1 mps 618 mmHg 88%
    02:00 +3°C° 0 mm 1 mps 618 mmHg 88%
    03:00 +3°C° 0 mm 1 mps 618 mmHg 88%
    04:00 +3°C° 0 mm 1 mps 618 mmHg 88%
    05:00 +3°C° 0 mm 1 mps 618 mmHg 87%
    06:00 +3°C° 0 mm 1 mps 619 mmHg 86%
    07:00 +4°C° 0 mm 1 mps 619 mmHg 85%
    08:00 +6°C° 0 mm 1 mps 620 mmHg 77%
    09:00 +8°C° 0 mm 1 mps 621 mmHg 70%
    10:00 +11°C° 0 mm 1 mps 622 mmHg 62%
    11:00 +11°C° 0 mm 1 mps 622 mmHg 60%
    12:00 +12°C° 0 mm 1 mps 622 mmHg 59%
    13:00 +12°C° 0 mm 1 mps 622 mmHg 57%
    14:00 +12°C° 0 mm 1 mps 622 mmHg 60%
    15:00 +11°C° 0 mm 1 mps 622 mmHg 64%
    16:00 +11°C° 0 mm 1 mps 622 mmHg 67%
    17:00 +9°C° 0.1 mm 1 mps 621 mmHg 75%
    18:00 +6°C° 0.1 mm 0 mps 620 mmHg 82%
    19:00 +4°C° 0.1 mm 0 mps 620 mmHg 90%
    20:00 +4°C° 0 mm 1 mps 620 mmHg 90%
    21:00 +4°C° 0 mm 1 mps 620 mmHg 90%
    22:00 +4°C° 0 mm 1 mps 620 mmHg 90%
    23:00 +4°C° 0 mm 1 mps 620 mmHg 89%

    Day after tomorrow, 27 September, Wednesday

    Time Temperature Precipitation Wind Pressure Humidity
    00:00 +4°C° 0 mm 1 mps 620 mmHg 89%
    01:00 +4°C° 0 mm 1 mps 620 mmHg 88%
    02:00 +3°C° 0 mm 1 mps 620 mmHg 88%
    03:00 +3°C° 0 mm 1 mps 620 mmHg 88%
    04:00 +3°C° 0 mm 1 mps 620 mmHg 88%
    05:00 +3°C° 0 mm 1 mps 621 mmHg 87%
    06:00 +4°C° 0 mm 1 mps 621 mmHg 86%
    07:00 +4°C° 0 mm 1 mps 621 mmHg 85%
    08:00 +7°C° 0 mm 1 mps 622 mmHg 78%
    09:00 +9°C° 0 mm 1 mps 623 mmHg 70%
    10:00 +12°C° 0 mm 1 mps 624 mmHg 62%
    11:00 +12°C° 0 mm 1 mps 624 mmHg 60%
    12:00 +13°C° 0 mm 1 mps 624 mmHg 58%
    13:00 +14°C° 0 mm 1 mps 624 mmHg 55%
    14:00 +13°C° 0 mm 1 mps 624 mmHg 58%
    15:00 +13°C° 0 mm 1 mps 624 mmHg 60%
    16:00 +13°C° 0 mm 1 mps 623 mmHg 63%
    17:00 +10°C° 0 mm 1 mps 623 mmHg 71%
    18:00 +8°C° 0 mm 1 mps 622 mmHg 80%
    19:00 +6°C° 0 mm 1 mps 621 mmHg 88%
    20:00 +5°C° 0 mm 1 mps 621 mmHg 88%
    21:00 +5°C° 0 mm 1 mps 621 mmHg 88%
    22:00 +5°C° 0 mm 1 mps 622 mmHg 88%
    23:00 +5°C° 0 mm 1 mps 621 mmHg 88%

    28 September, Thursday

    Time Temperature Precipitation Wind Pressure Humidity
    00:00 +5°C° 0 mm 1 mps 621 mmHg 88%
    01:00 +4°C° 0 mm 1 mps 621 mmHg 88%
    02:00 +4°C° 0 mm 1 mps 621 mmHg 88%
    03:00 +4°C° 0 mm 1 mps 621 mmHg 87%
    04:00 +4°C° 0 mm 1 mps 621 mmHg 87%
    05:00 +4°C° 0 mm 1 mps 621 mmHg 86%
    06:00 +5°C° 0 mm 1 mps 621 mmHg 85%
    07:00 +5°C° 0 mm 1 mps 622 mmHg 83%
    08:00 +8°C° 0 mm 1 mps 623 mmHg 75%
    09:00 +10°C° 0 mm 1 mps 624 mmHg 67%
    10:00 +13°C° 0 mm 1 mps 625 mmHg 59%
    11:00 +13°C° 0.1 mm 1 mps 624 mmHg 58%
    12:00 +14°C° 0.1 mm 1 mps 624 mmHg 58%
    13:00 +14°C° 0.1 mm 1 mps 624 mmHg 57%
    14:00 +13°C° 0.5 mm 2 mps 624 mmHg 62%
    15:00 +13°C° 0.5 mm 2 mps 624 mmHg 68%
    16:00 +12°C° 0.5 mm 2 mps 623 mmHg 74%
    17:00 +10°C° 0.5 mm 1 mps 623 mmHg 80%
    18:00 +9°C° 0.5 mm 1 mps 622 mmHg 86%
    19:00 +7°C° 0.5 mm 1 mps 622 mmHg 93%
    20:00 +7°C° 0.2 mm 1 mps 622 mmHg 94%
    21:00 +6°C° 0.2 mm 1 mps 622 mmHg 94%
    22:00 +6°C° 0.2 mm 1 mps 622 mmHg 95%
    23:00 +5°C° 0.1 mm 1 mps 622 mmHg 95%

    29 September, Friday

    Time Temperature Precipitation Wind Pressure Humidity
    00:00 +5°C° 0.1 mm 1 mps 621 mmHg 94%
    01:00 +4°C° 0.1 mm 1 mps 621 mmHg 94%
    02:00 +4°C° 0 mm 1 mps 621 mmHg 93%
    03:00 +4°C° 0 mm 1 mps 621 mmHg 93%
    04:00 +4°C° 0 mm 1 mps 620 mmHg 92%
    05:00 +4°C° 0 mm 1 mps 621 mmHg 91%
    06:00 +4°C° 0 mm 1 mps 621 mmHg 90%
    07:00 +4°C° 0 mm 1 mps 621 mmHg 89%
    08:00 +7°C° 0 mm 1 mps 622 mmHg 81%
    09:00 +8°C° 0 mm 0 mps 622 mmHg 73%
    10:00 +11°C° 0 mm 0 mps 623 mmHg 65%
    11:00 +11°C° 0 mm 0 mps 623 mmHg 62%
    12:00 +13°C° 0 mm 1 mps 623 mmHg 59%
    13:00 +14°C° 0 mm 1 mps 623 mmHg 56%
    14:00 +13°C° 0 mm 1 mps 623 mmHg 58%
    15:00 +13°C° 0 mm 1 mps 622 mmHg 61%
    16:00 +12°C° 0 mm 1 mps 622 mmHg 63%
    17:00 +10°C° 0 mm 1 mps 621 mmHg 72%
    18:00 +8°C° 0 mm 1 mps 620 mmHg 82%
    19:00 +5°C° 0 mm 0 mps 620 mmHg 91%
    20:00 +5°C° 0 mm 1 mps 620 mmHg 92%
    21:00 +5°C° 0 mm 1 mps 620 mmHg 92%
    22:00 +5°C° 0 mm 1 mps 619 mmHg 93%
    23:00 +5°C° 0 mm 1 mps 619 mmHg 92%

    30 September, Saturday

    Time Temperature Precipitation Wind Pressure Humidity
    00:00 +4°C° 0 mm 1 mps 619 mmHg 91%
    01:00 +4°C° 0 mm 1 mps 619 mmHg 91%
    02:00 +4°C° 0 mm 1 mps 619 mmHg 91%
    03:00 +4°C° 0 mm 1 mps 618 mmHg 90%
    04:00 +4°C° 0 mm 1 mps 618 mmHg 90%
    05:00 +4°C° 0 mm 1 mps 618 mmHg 89%
    06:00 +4°C° 0 mm 1 mps 618 mmHg 88%
    07:00 +5°C° 0 mm 1 mps 618 mmHg 87%
    08:00 +7°C° 0 mm 1 mps 619 mmHg 77%
    09:00 +9°C° 0 mm 0 mps 620 mmHg 67%
    10:00 +11°C° 0 mm 0 mps 620 mmHg 58%
    11:00 +12°C° 0 mm 0 mps 620 mmHg 55%
    12:00 +13°C° 0 mm 1 mps 620 mmHg 51%
    13:00 +14°C° 0 mm 1 mps 620 mmHg 48%
    14:00 +13°C° 0 mm 1 mps 620 mmHg 52%
    15:00 +13°C° 0 mm 1 mps 619 mmHg 56%
    16:00 +12°C° 0 mm 1 mps 619 mmHg 60%
    17:00 +10°C° 0 mm 1 mps 618 mmHg 69%
    18:00 +8°C° 0 mm 1 mps 617 mmHg 79%
    19:00 +6°C° 0 mm 1 mps 616 mmHg 89%
    20:00 +6°C° 0 mm 1 mps 616 mmHg 90%
    21:00 +6°C° 0 mm 1 mps 616 mmHg 91%
    22:00 +6°C° 0 mm 1 mps 617 mmHg 92%
    23:00 +6°C° 0.1 mm 1 mps 616 mmHg 92%
    Show more